Lafayette, LA

12:54 PM CDT on April 19, 2018 (GMT -0500)
Lafayette Regional

Weather History for KLFT - November, 2011

Change the Weather History Date:

Wednesday, November 30, 2011

  Actual Average Record
Temperature  
Mean Temperature 49 °F 58 °F  
Max Temperature 62 °F 68 °F 83 °F (2006)
Min Temperature 36 °F 47 °F 22 °F (1911)
Degree Days  
Heating Degree Days 16 9  
Month to date heating degree days 175 163  
Since 1 July heating degree days 229 199  
Moisture  
Dew Point 37 °F    
Average Humidity 65    
Maximum Humidity 96    
Minimum Humidity 34    
Precipitation  
Precipitation 0.00 in 0.15 in 2.25 in (1968)
Month to date precipitation 3.31 4.35  
Year to date precipitation 33.97 54.92  
Snow  
Snow 0.00 in 0.00 in 0.00 in ()
Month to date snowfall 0.0 0.0  
Since 1 July snowfall 0.0 0.0  
Since 1 September snowfall 0.0 0.0  
Snow Depth 0.00 in    
Sea Level Pressure  
Sea Level Pressure 30.19 in    
Wind  
Wind Speed 2 mph (NE)    
Max Wind Speed 9 mph    
Max Gust Speed 12 mph    
Visibility 10 miles    
Events      
T = Trace of Precipitation, MM = Missing Value Source: NWS Daily Summary

Daily Weather History Graph

Daily Weather History Graph

Search for Another Location

Airport or City:

Astronomy

Nov. 30, 2011 Rise Set
Actual Time 6:45 AM CST 5:07 PM CST
Civil Twilight 6:19 AM CST 5:33 PM CST
Nautical Twilight 5:50 AM CST 6:02 PM CST
Astronomical Twilight 5:21 AM CST 6:31 PM CST
Moon 11:15 AM CST (11/30) 10:50 PM CST (11/30)
Length of Visible Light 11h 13m
Length of Day
10h 21m
Waxing Crescent, 34% of the Moon is Illuminated
Nov 30
Waxing Crescent
Dec 2
First Quarter
Dec 10
Full
Dec 17
Last Quarter
Dec 24
New

Hourly Weather History & Observations

Time (CST) Temp. Windchill Dew Point Humidity Pressure Visibility Wind Dir Wind Speed Gust Speed Precip Events Conditions
12:53 AM 45.0 °F - 33.1 °F 63% 30.16 in 10.0 mi Calm Calm - N/A   Clear
1:53 AM 45.0 °F - 33.1 °F 63% 30.18 in 10.0 mi Calm Calm - N/A   Clear
2:53 AM 42.1 °F - 34.0 °F 73% 30.17 in 10.0 mi Calm Calm - N/A   Clear
3:53 AM 39.0 °F - 37.0 °F 93% 30.17 in 10.0 mi Calm Calm - N/A   Clear
4:53 AM 37.0 °F - 34.0 °F 89% 30.18 in 10.0 mi Calm Calm - N/A   Clear
5:53 AM 37.9 °F 35.5 °F 34.0 °F 86% 30.20 in 10.0 mi NNE 3.5 mph - N/A   Clear
6:53 AM 37.0 °F 34.5 °F 34.0 °F 89% 30.22 in 10.0 mi NE 3.5 mph - N/A   Clear
7:53 AM 41.0 °F 39.0 °F 36.0 °F 82% 30.23 in 10.0 mi NNE 3.5 mph - N/A   Clear
8:53 AM 46.0 °F 44.8 °F 37.9 °F 73% 30.24 in 10.0 mi ENE 3.5 mph - N/A   Clear
9:53 AM 52.0 °F - 39.9 °F 63% 30.24 in 10.0 mi ESE 3.5 mph - N/A   Clear
10:53 AM 57.0 °F - 37.9 °F 49% 30.23 in 10.0 mi NE 4.6 mph - N/A   Clear
11:53 AM 57.9 °F - 37.9 °F 47% 30.21 in 10.0 mi Calm Calm - N/A   Clear
12:53 PM 59.0 °F - 37.0 °F 44% 30.19 in 10.0 mi East 4.6 mph - N/A   Clear
1:53 PM 62.1 °F - 34.0 °F 35% 30.17 in 10.0 mi NNE 6.9 mph - N/A   Clear
2:53 PM 62.1 °F - 37.0 °F 39% 30.16 in 10.0 mi Calm Calm - N/A   Clear
3:53 PM 60.1 °F - 33.1 °F 36% 30.16 in 10.0 mi NNE 8.1 mph - N/A   Clear
4:53 PM 57.0 °F - 35.1 °F 44% 30.16 in 10.0 mi North 4.6 mph - N/A   Clear
5:53 PM 52.0 °F - 37.9 °F 59% 30.17 in 10.0 mi NE 3.5 mph - N/A   Clear
6:53 PM 48.0 °F - 39.0 °F 71% 30.18 in 10.0 mi Calm Calm - N/A   Clear
7:53 PM 46.9 °F - 37.9 °F 71% 30.19 in 10.0 mi Calm Calm - N/A   Clear
8:53 PM 44.1 °F - 41.0 °F 89% 30.19 in 10.0 mi Calm Calm - N/A   Clear
9:53 PM 44.1 °F - 37.0 °F 76% 30.19 in 10.0 mi Calm Calm - N/A   Clear
10:53 PM 43.0 °F - 41.0 °F 93% 30.20 in 10.0 mi Calm Calm - N/A   Clear
11:53 PM 39.9 °F - 37.9 °F 93% 30.20 in 10.0 mi Calm Calm - N/A   Clear